EW2692 Weather Reports


Display with metric or nautical units.
time (UTC)temp
F
wind
direction
speed
MPH
gust
MPH
rain 1hr
in
rain 24hr
in
rain mn
in
humidity
%
barometer
mb
20260505224556 46 300 7.0 16.0 0.00 0.00 0.00 33 942.8
20260505223055 45 284 7.0 11.0 0.00 0.00 0.00 33 942.9
20260505221552 45 292 6.0 15.0 0.00 0.00 0.00 35 942.9
20260505220051 45 274 4.0 11.0 0.00 0.00 0.00 36 942.9
20260505214553 45 298 4.0 12.0 0.00 0.00 0.00 36 943.1
20260505213047 45 292 4.0 11.0 0.00 0.00 0.00 36 943.2
20260505211547 45 296 6.0 13.0 0.00 0.00 0.00 35 943.3
20260505210045 44 295 4.0 15.0 0.00 0.00 0.00 36 943.3
20260505204547 44 313 7.0 14.0 0.00 0.00 0.00 35 943.4
20260505203047 44 302 6.0 16.0 0.00 0.00 0.00 35 943.4
20260505201544 44 288 5.0 11.0 0.00 0.00 0.00 35 943.4
20260505200048 44 307 7.0 13.0 0.00 0.00 0.00 35 943.4
20260505194542 44 309 8.0 14.0 0.00 0.00 0.00 35 943.4
20260505193041 45 309 8.0 14.0 0.00 0.00 0.00 35 943.4
20260505191541 43 300 8.0 17.0 0.00 0.00 0.00 36 943.4
20260505190043 44 290 4.0 13.0 0.00 0.00 0.00 36 943.3
20260505184536 44 279 5.0 11.0 0.00 0.00 0.00 38 943.3
20260505183039 42 360 5.0 13.0 0.00 0.00 0.00 38 943.4
20260505181534 42 294 4.0 13.0 0.00 0.00 0.00 38 943.4
20260505180037 42 333 3.0 20.0 0.00 0.00 0.00 38 943.4
20260505174539 43 307 4.0 16.0 0.00 0.00 0.00 37 943.6
20260505173030 42 284 6.0 17.0 0.00 0.00 0.00 38 943.5
20260505171529 42 291 5.0 15.0 0.00 0.00 0.00 39 943.4
20260505170030 41 297 4.0 16.0 0.00 0.00 0.00 39 943.5
20260505164526 41 302 6.0 13.0 0.00 0.00 0.00 41 943.5
20260505163024 39 310 6.0 16.0 0.00 0.00 0.00 41 943.5
20260505161522 39 284 6.0 17.0 0.00 0.00 0.00 41 943.5
20260505153019 38 288 7.0 17.0 0.00 0.00 0.00 42 943.6
20260505151519 37 331 9.0 17.0 0.00 0.00 0.00 43 943.7
20260505130111 35 311 4.0 9.0 0.00 0.00 0.00 57 942.9
20260505124602 34 301 4.0 8.0 0.00 0.00 0.00 58 942.8
20260505123052 34 286 3.0 8.0 0.00 0.00 0.00 58 942.6
20260505121552 34 292 2.0 6.0 0.00 0.00 0.00 59 942.4
20260505120105 34 304 2.0 8.0 0.00 0.00 0.00 58 942.2
20260505114547 34 295 1.0 5.0 0.00 0.00 0.00 59 942.1
20260505113051 34 283 3.0 6.0 0.00 0.00 0.00 58 942.2
20260505111543 34 280 2.0 8.0 0.00 0.00 0.00 61 942.1
20260505101535 35 288 2.0 5.0 0.00 0.00 0.00 62 942.0
20260505100034 35 306 2.0 7.0 0.00 0.00 0.00 61 941.9
20260505094534 35 289 2.0 5.0 0.00 0.00 0.00 61 941.7
20260505093028 35 295 2.0 5.0 0.00 0.00 0.00 62 941.6
20260505091526 35 279 3.0 7.0 0.00 0.00 0.00 63 941.5
20260505090024 35 292 2.0 7.0 0.00 0.00 0.00 63 941.5
20260505084523 36 294 3.0 7.0 0.00 0.00 0.00 63 941.5
20260505083021 36 287 3.0 6.0 0.00 0.00 0.00 62 941.5
20260505081529 35 276 1.0 4.0 0.00 0.00 0.00 62 941.4
20260505080019 36 296 2.0 7.0 0.00 0.00 0.00 60 941.4
20260505074515 36 297 1.0 5.0 0.00 0.00 0.00 60 941.4
20260505073014 36 288 2.0 5.0 0.00 0.00 0.00 58 941.4
20260505071526 36 287 1.0 5.0 0.00 0.00 0.00 59 941.5
20260505070012 36 300 1.0 4.0 0.00 0.00 0.00 58 941.5
20260505064519 37 298 2.0 4.0 0.00 0.00 0.00 57 941.5
20260505063013 37 300 1.0 5.0 0.00 0.00 0.00 56 941.5
20260505061509 37 294 3.0 8.0 0.00 0.00 0.00 55 941.4
20260505060004 37 294 2.0 5.0 0.00 0.00 0.00 55 941.3
20260505054502 37 292 2.0 5.0 0.00 0.00 0.00 54 941.3
20260505053001 37 288 1.0 6.0 0.00 0.00 0.00 54 941.3
20260505051600 37 294 1.0 5.0 0.00 0.00 0.00 52 941.2
20260505041556 38 285 3.0 7.0 0.00 0.00 0.00 51 941.0
20260505040055 38 301 2.0 6.0 0.00 0.00 0.00 50 941.0
20260505034552 38 285 3.0 8.0 0.00 0.00 0.00 49 940.9
20260505033052 39 292 3.0 8.0 0.00 0.00 0.00 49 940.8
20260505031549 39 296 2.0 5.0 0.00 0.00 0.00 49 940.7
20260505030048 39 288 2.0 6.0 0.00 0.00 0.00 51 940.6
20260505024546 38 286 2.0 9.0 0.00 0.00 0.00 52 940.4
20260505023050 38 298 1.0 5.0 0.00 0.00 0.00 51 940.3
20260505021544 39 296 1.0 4.0 0.00 0.00 0.00 50 940.2
20260505020042 40 300 2.0 9.0 0.00 0.00 0.00 49 940.0
20260505014539 41 348 2.0 14.0 0.00 0.00 0.00 48 939.7
20260505013038 42 306 3.0 11.0 0.00 0.00 0.00 45 939.5
20260505011545 43 321 5.0 17.0 0.00 0.00 0.00 44 939.4
20260505010038 43 294 6.0 14.0 0.00 0.00 0.00 43 939.3
20260505004535 43 292 4.0 13.0 0.00 0.00 0.00 43 939.1
20260505003032 44 304 7.0 21.0 0.00 0.00 0.00 42 939.1
20260505001531 45 305 6.0 16.0 0.00 0.00 0.00 42 938.9
20260505000032 44 320 7.0 18.0 0.00 0.00 0.00 44 938.9
20260504234528 44 306 4.0 13.0 0.00 0.00 0.00 43 938.9
20260504233027 44 292 8.0 13.0 0.00 0.00 0.00 42 938.8
20260504231526 45 308 8.0 22.0 0.00 0.00 0.00 42 938.7
20260504230027 46 308 7.0 16.0 0.00 0.00 0.00 41 938.5